Orbital Elements at Epoch 2459200.5 (2020-Dec-17.0) TDB
Reference: JPL 22 (heliocentric ecliptic J2000)
Element | Value | Uncertainty (1-sigma) | Units |
e | .08724031557921727 | 3.2908e-08 | |
a | 2.334979935780715 | 8.0512e-09 | au |
q | 2.131275549312065 | 7.9535e-08 | au |
i | 6.814722677082832 | 4.1838e-06 | deg |
node | 143.7158262708269 | 2.7516e-05 | deg |
peri | 264.314479828744 | 3.6904e-05 | deg |
M | 329.2029460785982 | 2.4199e-05 | deg |
tp | 2459311.988437558744 (2021-Apr-07.48843756) | 8.7727e-05 | TDB |
period | 1303.236264857669 3.57 | 6.7405e-06 1.845e-08 | d yr |
n | .2762354069692167 | 1.4287e-09 | deg/d |
Q | 2.538684322249365 | 8.7536e-09 | au |
|
| | Orbit Determination Parameters
Additional Information
|